EW7837 Weather Reports


time (UTC)temp
C
wind
direction
speed
KPH
gust
KPH
rain 1hr
cm
rain 24hr
cm
rain mn
cm
humidity
%
barometer
mb
20260505093101 15 264 0.0 0.0 0.00 0.00 0.25 91 1011.1
20260505091551 14 264 0.0 0.0 0.00 0.00 0.25 90 1011.1
20260505090049 14 264 0.0 0.0 0.00 0.00 0.25 90 1011.1
20260505084517 15 264 0.0 0.0 0.00 0.00 0.25 90 1011.2
20260505083021 15 264 0.0 0.0 0.00 0.00 0.25 90 1011.4
20260505081629 15 264 0.0 0.0 0.00 0.00 0.25 89 1011.7
20260505080056 15 264 0.0 0.0 0.00 0.00 0.25 89 1011.7
20260505074546 15 264 0.0 0.0 0.00 0.00 0.25 89 1011.7
20260505073031 15 264 0.0 0.0 0.00 0.00 0.25 87 1011.7
20260505071512 15 264 0.0 0.0 0.00 0.00 0.08 86 1011.6
20260505070013 15 264 0.0 0.0 0.00 0.00 0.05 85 1011.7
20260505064506 16 264 0.0 0.0 0.00 0.00 0.03 83 1012.1
20260505063005 16 264 0.0 0.0 0.00 0.00 0.00 81 1012.1
20260505061514 16 264 0.0 0.0 0.00 0.00 0.00 79 1012.1
20260505060002 16 264 0.0 0.0 0.00 0.00 0.00 79 1012.1
20260505054502 16 264 0.0 0.0 0.00 0.00 0.00 79 1012.2
20260505053000 15 264 0.0 0.0 0.00 0.00 0.00 78 1012.4
20260505051600 15 264 0.0 0.0 0.00 0.00 0.00 78 1012.6
20260505041523 16 264 0.0 0.0 0.00 0.00 0.00 74 1012.5
20260505040019 16 264 0.0 0.0 0.00 0.00 0.00 75 1012.3
20260505034518 16 264 0.0 0.0 0.00 0.00 0.00 75 1012.2
20260505033014 16 264 0.0 0.0 0.00 0.00 0.00 74 1012.2
20260505031513 17 264 0.0 0.0 0.00 0.00 0.00 73 1012.0
20260505030012 17 264 0.0 0.0 0.00 0.00 0.00 73 1012.1
20260505024510 17 264 0.0 0.0 0.00 0.00 0.00 73 1011.7
20260505023012 17 264 0.0 0.0 0.00 0.00 0.00 72 1011.7
20260505021507 17 230 0.0 0.0 0.00 0.00 0.00 70 1011.8
20260505020006 18 247 0.0 0.0 0.00 0.00 0.00 70 1011.8
20260505014505 17 247 0.0 0.0 0.00 0.00 0.00 69 1011.8
20260505013003 18 246 0.0 0.0 0.00 0.00 0.00 69 1012.2
20260505011500 19 273 0.0 0.0 0.00 0.00 0.00 67 1012.2
20260505010118 20 265 1.6 0.0 0.00 0.00 0.00 65 1012.2
20260505004600 20 253 0.0 0.0 0.00 0.00 0.00 65 1012.2
20260505003059 20 251 0.0 0.0 0.00 0.00 0.00 65 1012.2
20260505001559 20 250 0.0 0.0 0.00 0.00 0.00 64 1012.2
20260505000059 20 263 0.0 0.0 0.00 0.00 0.00 65 1012.3
20260504234557 19 208 1.6 0.0 0.00 0.00 0.00 66 1012.3
20260504233058 20 210 0.0 0.0 0.00 0.00 0.00 64 1012.2
20260504231558 20 278 0.0 0.0 0.00 0.00 0.00 64 1012.3
20260504230053 20 269 1.6 0.0 0.00 0.00 0.00 61 1012.2
20260504224554 21 265 0.0 0.0 0.00 0.00 0.00 62 1012.3
20260504223100 20 262 1.6 0.0 0.00 0.00 0.00 63 1012.2
20260504221602 21 274 0.0 0.0 0.00 0.00 0.00 63 1012.4
20260504220050 21 268 0.0 0.0 0.00 0.00 0.00 62 1012.7
20260504214558 21 272 0.0 0.0 0.00 0.00 0.00 63 1012.8
20260504213059 21 194 1.6 0.0 0.00 0.00 0.00 63 1013.0
20260504211548 20 259 1.6 0.0 0.00 0.00 0.00 61 1012.8
20260504210045 21 268 1.6 0.0 0.00 0.00 0.00 61 1012.7
20260504204542 20 265 1.6 0.0 0.00 0.00 0.00 62 1012.9
20260504203047 20 264 1.6 0.0 0.00 0.00 0.00 63 1012.8
20260504201541 20 259 0.0 0.0 0.00 0.00 0.00 62 1012.9
20260504200037 20 270 1.6 0.0 0.00 0.00 0.00 64 1013.2
20260504194541 20 246 1.6 0.0 0.00 0.00 0.00 65 1013.2
20260504193034 20 255 0.0 0.0 0.00 0.00 0.00 67 1013.3
20260504191538 20 267 1.6 0.0 0.00 0.00 0.00 65 1013.2
20260504190031 19 255 0.0 0.0 0.00 0.00 0.00 64 1013.3
20260504184531 19 262 1.6 0.0 0.00 0.00 0.00 64 1013.5
20260504183029 20 270 1.6 0.0 0.00 0.00 0.00 63 1013.7
20260504181527 19 254 1.6 0.0 0.00 0.00 0.00 66 1013.5
20260504180024 19 259 0.0 0.0 0.00 0.00 0.00 66 1013.2
20260504174525 19 260 0.0 0.0 0.00 0.00 0.00 65 1013.5
20260504173034 19 215 0.0 0.0 0.00 0.00 0.00 65 1013.2
20260504173032 19 215 0.0 0.0 0.00 0.00 0.00 65 1013.2
20260504171525 19 257 0.0 0.0 0.00 0.00 0.00 66 1013.2
20260504150112 17 249 0.0 0.0 0.00 0.00 0.00 73 1012.6